Tracking 30995 objects as of 7-Jul-2025
HD Live streaming from Space Station
objects crossing your sky now

STARLINK-4659

Track STARLINK-4659 now!
10-day predictions
STARLINK-4659 is classified as:


NORAD ID: 54841
Int'l Code: 2022-177X
Perigee: 565.4 km
Apogee: 567.1 km
Inclination: 43.0 °
Period: 95.8 minutes
Semi major axis: 6937 km
RCS: Unknown
Launch date: December 28, 2022
Source: United States (US)
Launch site: AIR FORCE EASTERN TEST RANGE (AFETR)
Your satellite tracking list
Your tracking list is empty




NASA's NSSDC Master Catalog

Two Line Element Set (TLE):
1 54841U 22177X   25187.62513445 -.00000300  00000-0 -71130-5 0  9996
2 54841  43.0062  30.1354 0001262 267.4670  92.6028 15.02532401139944
Source of the keplerian elements: AFSPC